Probability
2 6 11 13 13 14 14 16 19 20 18 13 10 10 10 6 4 4 4 3 4 3 1 1 1 1 0 0 0 0 0 0 0 0 0 0 0 0 0 0 0 0 0
5 8 14 15 15 17 16 17 19 20 18 12 9 10 8 4 2 3 3 2 3 2 1 0 0 0 0 0 0 0 0 0 0 0 0 0 0 0 0 0 0 0 0
11 13 17 20 20 22 22 21 21 22 18 12 9 9 8 4 1 1 1 1 1 1 1 0 1 1 1 1 0 0 0 0 0 0 0 0 0 0 0 0 0 0 0
13 15 19 23 23 24 26 26 25 25 22 15 11 9 7 4 2 1 0 0 0 1 1 1 1 2 2 1 0 0 0 0 0 0 1 1 0 0 0 0 0 0 0
12 12 16 22 24 24 27 28 27 27 26 21 15 11 9 6 4 2 1 0 0 1 2 2 2 2 1 1 0 0 0 0 1 2 2 2 1 1 1 1 1 1 1
15 12 14 21 24 25 26 27 26 28 28 26 22 18 15 11 7 4 2 1 1 2 2 2 3 3 2 1 1 1 1 1 1 3 4 3 3 3 3 4 4 4 4
20 16 17 22 25 26 27 27 26 27 29 29 26 24 21 17 12 8 5 3 3 3 2 2 2 3 3 1 1 2 2 1 2 3 3 3 2 3 4 6 7 8 7
21 20 20 23 25 27 27 27 26 27 29 29 26 24 23 20 17 13 9 6 4 4 3 3 3 3 2 1 1 2 2 2 1 1 2 1 1 2 4 6 9 9 8
21 20 20 22 24 27 28 28 27 26 28 27 24 21 20 19 17 16 13 9 7 6 5 4 3 4 4 2 1 1 1 1 0 0 0 0 1 3 5 7 9 9 8
19 18 19 21 23 26 28 29 27 26 26 25 22 20 18 16 14 14 13 11 10 7 5 3 4 5 5 4 2 1 1 1 1 0 0 0 2 4 7 8 9 9 9
18 17 18 20 23 25 28 28 26 23 23 22 21 20 18 15 12 11 11 10 9 7 5 4 4 5 6 5 2 2 3 3 3 1 1 1 2 4 7 8 9 9 9
20 18 17 19 22 23 25 25 23 20 18 19 19 18 17 14 11 10 10 9 7 6 5 3 3 3 5 5 3 3 5 6 5 4 3 2 2 5 6 8 10 10 10
21 19 18 19 20 20 21 23 21 17 16 17 17 16 14 12 11 11 11 9 7 5 4 3 2 2 3 5 5 5 6 6 7 6 5 4 5 7 7 7 9 11 11
18 16 16 17 17 16 18 19 18 15 14 14 14 13 12 11 11 12 14 11 8 6 4 4 4 3 2 3 4 5 5 6 8 8 7 7 8 10 9 7 7 10 12
14 13 12 13 13 13 14 15 14 13 12 12 11 10 9 9 9 11 12 10 8 6 5 5 6 4 2 2 3 3 3 5 6 6 7 8 9 11 12 8 6 8 10
14 12 10 9 8 9 11 12 12 11 10 9 9 8 7 6 6 7 7 6 5 4 4 4 4 3 1 1 1 2 2 2 3 4 4 6 7 9 11 10 7 8 10
14 12 9 7 5 5 8 10 10 9 7 6 5 5 4 4 4 4 4 3 3 3 3 3 3 3 2 1 1 2 2 1 1 2 2 3 3 4 7 9 8 8 9
14 11 8 6 5 3 4 6 7 6 4 3 2 2 3 3 3 4 3 3 3 3 3 3 3 3 3 3 3 3 2 1 0 0 1 1 1 1 2 5 7 7 6
11 8 5 4 3 1 1 3 4 3 2 1 1 2 4 4 4 4 4 3 3 3 3 3 3 3 3 3 3 3 2 1 0 0 0 0 0 0 1 2 4 5 4
8 5 2 1 1 1 2 3 3 2 1 0 0 2 3 4 4 4 3 3 3 3 3 3 3 3 3 3 3 2 2 1 0 0 0 0 0 0 1 2 3 4 4
9 5 2 1 1 2 3 4 3 2 0 0 1 1 1 2 3 3 3 3 3 3 3 3 3 4 4 2 1 1 1 0 0 0 0 0 0 0 1 2 3 3 4
8 6 4 3 4 5 5 7 6 4 2 1 1 0 0 1 1 2 3 3 3 3 3 3 4 4 4 2 0 0 0 0 0 0 0 0 0 0 0 1 2 2 2
4 4 5 6 8 9 9 10 11 9 6 4 2 0 0 1 1 1 2 3 3 3 3 3 3 3 2 1 0 0 0 0 0 0 0 0 0 0 0 0 1 1 1
2 3 6 8 10 11 12 13 13 12 10 6 3 1 1 2 2 1 1 1 2 3 3 3 3 1 1 0 0 0 0 0 0 0 0 0 0 0 0 0 0 1 1
2 3 7 9 10 12 13 13 13 13 10 6 3 3 3 3 2 1 0 0 1 1 2 3 3 1 0 0 0 0 0 0 0 0 0 0 0 0 0 0 0 0 0
1 3 7 10 10 11 12 13 13 13 9 5 3 3 3 3 2 1 0 0 0 0 1 3 3 2 1 0 1 1 1 0 0 0 0 0 0 0 0 0 0 0 0
Wind_Speed
4 6 11 12 12 12 13 14 15 15 16 16 16 15 15 15 14 14 13 12 11 10 10 10 10 10 10 9 9 8 8 7 7 7 8 7 7 7 7 7 7 6 8
8 8 13 12 12 12 13 14 14 15 15 15 15 14 14 14 13 12 12 11 11 10 10 9 9 9 9 8 8 8 7 6 6 6 6 5 6 6 6 7 7 5 8
10 9 11 13 13 13 13 14 14 14 14 14 14 14 13 13 12 12 11 10 10 10 9 9 8 8 8 7 7 6 6 6 5 5 4 3 3 5 5 6 7 7 7
9 8 10 14 13 13 13 13 14 14 14 14 13 13 13 12 12 11 10 10 9 9 8 8 8 7 6 6 6 6 6 6 5 5 3 2 2 5 6 6 7 7 8
8 7 9 14 13 13 13 13 13 13 13 13 13 13 12 12 11 10 10 9 9 8 8 7 7 6 6 6 5 5 5 5 4 3 2 2 2 5 6 7 7 8 8
7 6 8 13 13 12 12 13 13 13 13 13 12 12 11 11 10 9 9 8 8 7 7 6 6 5 5 5 4 4 4 4 3 2 2 2 3 5 7 7 8 8 9
7 5 6 11 11 11 11 11 12 12 12 12 11 11 10 10 9 8 8 7 7 6 6 5 5 4 4 4 3 3 3 3 3 2 2 2 3 5 6 7 7 7 8
7 5 5 10 11 11 11 11 11 11 11 11 11 10 10 9 8 7 7 6 5 5 5 4 4 4 3 3 3 3 3 3 2 2 2 2 3 5 6 6 6 6 7
6 5 3 5 7 10 10 10 10 10 10 10 10 10 9 8 8 7 6 5 5 4 4 3 3 3 3 2 2 2 2 3 2 1 2 2 3 4 5 5 6 6 6
5 4 3 3 3 4 5 9 10 10 9 9 9 9 8 8 7 6 5 4 4 3 3 2 2 2 2 1 2 3 3 2 2 2 1 2 3 4 4 4 5 6 6
4 3 3 3 3 4 4 6 7 8 8 8 6 8 6 3 2 3 3 3 3 2 2 1 1 1 1 1 1 2 2 1 2 2 2 3 4 4 5 5 5 5 6
5 4 3 3 3 3 3 3 3 3 3 3 3 3 2 2 1 2 1 2 1 1 0 0 0 0 0 0 0 1 1 1 2 2 2 4 4 4 5 6 6 6 6
5 4 3 3 3 3 2 3 2 2 2 3 3 3 3 2 1 1 1 0 1 1 1 1 1 1 1 0 0 1 1 1 1 2 2 4 4 5 5 6 6 7 6
5 4 3 2 3 3 3 3 3 2 2 2 3 3 3 2 1 1 1 0 0 0 0 1 0 1 1 0 0 1 1 1 1 1 2 5 5 5 5 6 6 6 6
5 4 3 3 3 3 3 2 3 3 3 3 2 2 3 2 2 1 1 1 0 0 0 0 0 0 1 1 1 1 1 1 2 2 1 4 4 5 5 5 6 6 6
5 5 4 4 4 4 3 3 2 2 2 3 2 3 3 2 2 2 1 1 0 0 1 0 0 0 0 0 1 1 1 1 1 2 2 2 3 4 5 5 5 5 5
5 4 4 4 4 4 4 3 3 2 2 2 2 3 3 3 2 2 2 1 1 0 1 1 0 0 0 0 1 1 0 1 1 2 2 1 2 4 6 6 5 5 5
4 4 5 5 5 4 3 3 3 2 2 2 2 2 3 3 3 2 2 1 1 1 1 1 1 0 0 0 1 1 1 1 1 1 1 2 2 2 4 6 6 6 6
4 4 4 4 5 4 4 3 3 2 2 2 1 2 2 2 3 2 2 1 1 1 1 1 1 1 1 0 1 1 1 1 1 1 1 2 2 2 2 4 6 6 6
4 4 4 3 3 3 3 2 2 2 1 1 1 1 1 2 2 2 2 2 1 1 0 1 1 1 1 0 0 1 1 1 1 1 2 1 2 2 2 3 3 4 5
4 4 4 4 3 3 2 2 2 1 1 1 1 1 1 1 2 2 2 1 1 1 1 1 1 1 0 0 1 2 2 1 1 1 1 1 2 2 2 3 2 2 3
5 5 5 5 4 4 3 2 2 2 1 1 1 1 1 1 2 2 2 2 2 2 1 1 1 1 0 1 2 1 2 2 2 2 1 1 2 2 2 2 2 2 2
4 5 5 5 5 4 4 3 2 2 1 1 0 0 1 1 2 2 2 2 2 2 2 2 2 2 1 0 1 2 2 1 2 2 2 1 1 1 2 2 2 2 3
5 4 4 4 3 3 4 4 4 3 3 2 1 1 1 2 2 2 2 2 2 2 2 2 2 2 2 1 0 1 1 2 1 1 2 2 2 2 2 2 2 2 3
4 4 3 3 3 3 4 4 4 3 2 1 1 2 1 1 1 2 2 2 2 2 2 2 2 2 2 2 2 2 1 1 1 1 2 2 2 2 2 2 2 2 3
3 3 4 4 3 3 4 4 4 5 4 3 2 2 2 1 1 2 2 2 3 2 2 3 2 3 2 2 2 2 2 2 2 2 2 2 2 2 2 2 2 2 3
Wind_Direction
157 154 151 146 141 135 129 124 121 120 120 122 123 125 126 128 130 131 132 133 132 131 130 128 126 126 126 126 125 127 126 127 129 132 137 139 137 138 138 139 137 134 135
149 150 151 148 144 138 134 129 126 123 123 124 126 127 127 128 130 132 134 133 133 133 132 131 130 130 130 130 130 130 130 131 133 134 139 138 143 144 146 148 147 143 146
140 146 149 149 145 141 138 135 131 129 128 129 130 130 130 131 132 133 133 133 133 134 133 132 131 132 133 132 132 134 137 140 142 141 131 114 131 149 157 161 157 152 153
140 144 148 151 149 146 143 141 138 136 134 134 134 134 135 136 136 137 137 136 136 136 134 133 132 131 134 138 138 140 146 152 156 153 129 134 157 165 167 169 164 164 163
134 141 155 154 152 150 147 147 144 141 139 139 139 139 140 140 139 139 140 139 138 137 134 134 133 132 134 140 141 142 150 158 157 150 140 155 176 182 179 178 176 175 170
132 138 157 153 153 152 151 151 149 146 145 144 143 142 141 141 141 143 143 144 144 143 142 140 137 139 139 138 141 144 153 156 140 137 149 172 190 195 186 183 183 181 175
132 133 148 150 153 154 154 154 154 151 149 149 147 144 143 143 145 144 143 143 147 150 150 147 144 143 147 152 156 162 170 173 142 146 167 183 191 193 186 187 187 186 183
132 133 144 153 157 159 157 156 157 154 152 151 150 149 148 149 149 148 147 147 148 151 153 152 153 156 158 163 173 177 174 179 160 162 179 189 192 195 193 193 191 188 188
124 131 139 154 162 164 162 159 159 159 157 156 156 154 155 156 156 154 156 160 162 160 156 154 156 160 161 166 181 181 172 177 150 157 187 196 198 199 197 195 195 191 189
116 124 135 143 151 158 165 167 166 163 159 158 158 157 158 160 160 160 161 165 165 165 164 154 153 165 156 161 179 176 171 173 159 171 193 202 209 211 211 206 199 196 194
132 135 148 156 153 154 163 170 164 164 162 159 161 161 158 150 149 153 156 165 166 174 185 177 186 182 162 157 171 188 189 159 173 193 199 204 210 214 214 213 206 202 199
159 162 158 164 156 152 162 143 143 152 150 146 144 147 137 129 141 142 150 185 173 166 202 291 302 271 265 92 167 193 166 183 196 209 208 213 218 218 218 213 209 209 206
167 161 154 164 152 149 149 140 138 142 142 147 147 141 134 125 125 112 89 348 337 4 11 10 5 352 348 130 217 209 200 213 214 216 215 217 222 224 229 222 214 213 211
159 164 161 164 154 145 137 142 143 146 148 150 153 145 142 136 124 110 101 60 31 24 29 27 26 350 343 325 233 227 216 214 221 223 222 220 224 229 234 226 216 216 216
165 171 173 173 158 143 131 136 137 144 148 148 141 140 137 136 143 134 132 107 66 95 105 52 42 10 343 334 277 237 222 215 224 219 230 230 229 229 233 231 226 223 219
174 176 178 172 161 143 140 139 142 146 151 148 147 143 135 134 139 135 128 123 151 162 159 157 215 209 270 309 315 301 260 235 221 216 218 239 241 239 239 239 237 232 227
177 173 177 173 154 144 137 136 139 135 159 153 153 143 146 146 149 149 150 151 200 164 145 136 101 171 105 52 334 318 296 270 238 230 225 228 245 245 243 243 244 238 232
168 174 184 170 149 145 140 135 131 144 148 147 151 147 156 162 156 141 141 166 184 142 144 148 135 91 51 36 322 305 312 281 256 239 230 228 234 244 251 249 250 246 237
171 175 176 167 154 154 147 133 128 132 138 141 142 151 158 164 160 150 157 165 156 138 147 169 126 148 163 293 271 292 305 287 274 262 254 240 234 239 249 260 255 252 243
163 169 167 169 149 141 135 121 110 110 126 130 144 168 157 165 160 153 160 160 146 132 128 121 141 136 166 216 316 346 331 300 295 286 273 267 252 245 242 250 256 263 253
162 169 174 175 171 155 152 154 152 172 183 171 184 191 181 175 161 160 173 154 149 160 183 168 145 111 39 58 60 357 339 333 322 308 288 284 282 270 251 247 247 251 260
178 179 182 183 182 179 178 169 153 153 168 189 208 204 200 190 174 177 168 175 177 163 160 171 154 145 154 130 125 91 347 340 340 335 318 283 290 284 268 254 254 252 254
192 194 190 189 186 180 170 136 113 89 71 99 147 197 219 200 186 179 180 179 181 173 185 194 186 168 182 143 120 145 153 239 307 320 328 335 329 317 296 286 274 262 254
207 197 187 178 173 165 160 159 159 164 183 199 189 200 220 205 189 183 184 177 183 181 185 198 184 186 170 188 164 164 169 169 182 299 315 324 325 320 309 306 302 283 272
196 180 178 160 166 163 164 172 170 182 197 180 161 177 198 223 203 186 187 185 191 190 191 192 184 185 181 189 187 178 167 160 188 204 276 304 310 298 300 301 301 300 293
173 163 161 155 171 173 172 178 182 188 185 166 172 187 202 216 217 205 199 201 199 195 196 198 192 190 195 190 191 182 178 178 189 191 229 266 283 287 290 291 294 299 301